Location: Arthez
(43.0833°N, 0.2500°W)
Time: 23:20:42
(UTC+00:00)

Cosmos 724 - Pass Details

Date: 23 October 2021
Orbit: 857 x 938 km, 65.6° (Epoch: 27 November)

Event Time Altitude Azimuth Distance (km) Brightness Sun altitude
Rises 17:43:01 0° 327° (NNW) 3,526 7.8 -7.5°
Reaches altitude 10° 17:45:33 10° 328° (NNW) 2,570 7.0 -8.0°
Maximum altitude 17:51:32 84° 57° (ENE) 889 4.3 -9.1°
Drops below altitude 10° 17:57:21 10° 146° (SE) 2,504 6.4 -10.1°
Sets 17:59:47 0° 147° (SSE) 3,430 7.1 -10.6°
